User: anonymous   Login
Location: Unnamed Road
(35.9029°N, 51.9749°E)
Time: 21:13:26
(UTC+04:30)
Language:

deb Explorer IX - Orbit

View from above orbital plane
View from above orbital plane
View from above satellite
View from above satellite

Ground track
Ground track

The orbit data is extracted from the following two-line orbital elements,

1    85U 61004C   20158.05782282  .00002241  00000-0  50709-3 0  9997
2    85  38.7704  79.1976 0384575  65.0179 299.0002 14.20615601929450
Epoch (UTC): 06 June 2020 01:23:15
Eccentricity: 0.0384575
inclination: 38.7704°
perigee height: 546 km
apogee height: 1100 km
right ascension of ascending node: 79.1976°
argument of perigee: 65.0179°
revolutions per day: 14.20615601
mean anomaly at epoch: 299.0002°
orbit number at epoch: 92945

The dashed part of the orbit path shows where the satellite is in the earth's shadow,  

DLR